EVA220 RCKH-RCTP

Flight info

Callsign EVA220
Flight time N/A
Altitude 19000
Route TNN2G TNN TNN1A
Aircraft B77W/H-SDE1E2E3FGHIJ2J3J4J5M1RWXY/LB1D1

Departure

Time 2026-04-26 14:10
Airport Kaohsiung International Airport (RCKH)

Arrival

Time N/A
Airport Taiwan Taoyuan International Airport (RCTP)
Time Latitude Longitude Altitude Speed Heading
2026-04-26 13:59 22.57333 120.33846 41 ft 0 kts 91°
2026-04-26 14:04 22.57332 120.33826 40 ft 4 kts 89°
2026-04-26 14:04 22.57330 120.33798 38 ft 3 kts 76°
2026-04-26 14:05 22.57324 120.33782 39 ft 2 kts 45°
2026-04-26 14:05 22.57314 120.33774 38 ft 2 kts 16°
2026-04-26 14:05 22.57302 120.33771 42 ft 2 kts
2026-04-26 14:05 22.57291 120.33770 40 ft 2 kts
2026-04-26 14:06 22.57283 120.33770 42 ft 0 kts
2026-04-26 14:08 22.57290 120.33770 43 ft 6 kts
2026-04-26 14:08 22.57376 120.33769 43 ft 14 kts 344°
2026-04-26 14:08 22.57434 120.33686 43 ft 14 kts 307°
2026-04-26 14:09 22.57506 120.33609 43 ft 15 kts 317°
2026-04-26 14:09 22.57587 120.33528 43 ft 17 kts 321°
2026-04-26 14:09 22.57692 120.33504 42 ft 14 kts
2026-04-26 14:09 22.57748 120.33573 43 ft 14 kts 81°
2026-04-26 14:10 22.57745 120.33817 44 ft 51 kts 92°
2026-04-26 14:10 22.57723 120.34499 43 ft 134 kts 91°
2026-04-26 14:10 22.57653 120.35758 160 ft 190 kts 95°
2026-04-26 14:10 22.57604 120.37245 694 ft 207 kts 83°
2026-04-26 14:11 22.59779 120.39182 2111 ft 230 kts
2026-04-26 14:11 22.61433 120.38892 2662 ft 250 kts 344°
2026-04-26 14:11 22.63120 120.38308 3489 ft 259 kts 341°
2026-04-26 14:12 22.64848 120.37665 4423 ft 264 kts 341°
2026-04-26 14:12 22.66609 120.37008 5397 ft 269 kts 341°
2026-04-26 14:12 22.68397 120.36351 6372 ft 274 kts 341°
2026-04-26 14:12 22.70222 120.35689 7250 ft 279 kts 341°
2026-04-26 14:13 22.73958 120.34360 9073 ft 287 kts 341°
2026-04-26 14:13 22.75871 120.33687 9957 ft 291 kts 340°
2026-04-26 14:13 22.77836 120.32999 10594 ft 305 kts 341°
2026-04-26 14:14 22.79959 120.32257 10861 ft 335 kts 341°
2026-04-26 14:14 22.82281 120.31447 11074 ft 364 kts 341°
2026-04-26 14:14 22.84755 120.30587 11593 ft 381 kts 341°
2026-04-26 14:14 22.87289 120.29709 12381 ft 390 kts 341°
2026-04-26 14:15 22.89892 120.28807 13367 ft 396 kts 341°
2026-04-26 14:15 22.92528 120.27893 14289 ft 400 kts 341°
2026-04-26 14:15 22.95201 120.26966 15195 ft 404 kts 341°
2026-04-26 14:15 22.97895 120.26030 16101 ft 408 kts 341°
2026-04-26 14:16 23.00613 120.25086 17002 ft 412 kts 341°
2026-04-26 14:16 23.03357 120.24132 17938 ft 416 kts 341°
2026-04-26 14:16 23.06119 120.23170 18731 ft 418 kts 341°
2026-04-26 14:16 23.08900 120.22203 19040 ft 424 kts 341°
2026-04-26 14:17 23.11763 120.21209 19023 ft 434 kts 342°
2026-04-26 14:17 23.14757 120.20614 19009 ft 441 kts 358°
2026-04-26 14:17 23.17811 120.20917 19025 ft 443 kts
2026-04-26 14:17 23.20882 120.21362 19016 ft 445 kts
2026-04-26 14:18 23.23952 120.21788 19009 ft 445 kts
2026-04-26 14:18 23.27027 120.22192 19004 ft 445 kts
2026-04-26 14:18 23.30106 120.22578 18996 ft 445 kts
2026-04-26 14:18 23.33138 120.22947 18996 ft 444 kts
2026-04-26 14:19 23.36215 120.23316 18997 ft 443 kts
2026-04-26 14:19 23.39279 120.23681 18997 ft 442 kts
2026-04-26 14:19 23.42335 120.24045 18994 ft 442 kts
2026-04-26 14:19 23.45399 120.24410 18993 ft 441 kts
2026-04-26 14:20 23.48452 120.24776 18996 ft 441 kts
2026-04-26 14:20 23.51494 120.25140 18997 ft 440 kts